When you browse on this site, cookies collect data to enhance your experience and personalize the content and advertising you see.
Visit our Privacy Policy to learn more. By continuing to use the site, you agree to this use of cookies and data.
  • In Lithuania
  • List of Countries
  • For 7 days
  • Water Temperature
  • Satellite Maps
  • Weather Map
  • Weather Widgets
  • user-avatar
    Login

    Hourly Weather Annaba

    Today, 18 February, Monday

    Time Temperature Precipitation Wind Pressure Humidity
    00:00 +10°C° 0 mm 2 mps 767 mmHg 67%
    01:00 +10°C° 0 mm 1 mps 767 mmHg 65%
    02:00 +10°C° 0 mm 1 mps 766 mmHg 64%
    03:00 +10°C° 0 mm 1 mps 766 mmHg 63%
    04:00 +10°C° 0 mm 1 mps 766 mmHg 62%
    05:00 +10°C° 0 mm 1 mps 766 mmHg 62%
    06:00 +8°C° 0 mm 2 mps 766 mmHg 63%
    07:00 +8°C° 0 mm 2 mps 765 mmHg 64%
    08:00 +11°C° 0 mm 1 mps 765 mmHg 61%
    09:00 +13°C° 0 mm 1 mps 765 mmHg 58%
    10:00 +15°C° 0 mm 1 mps 765 mmHg 55%
    11:00 +16°C° 0 mm 1 mps 765 mmHg 52%
    12:00 +19°C° 0 mm 1 mps 764 mmHg 48%
    13:00 +20°C° 0 mm 1 mps 764 mmHg 45%
    14:00 +20°C° 0 mm 1 mps 764 mmHg 49%
    15:00 +18°C° 0 mm 2 mps 763 mmHg 52%
    16:00 +18°C° 0 mm 3 mps 763 mmHg 56%
    17:00 +16°C° 0 mm 3 mps 763 mmHg 64%
    18:00 +13°C° 0 mm 3 mps 763 mmHg 72%
    19:00 +11°C° 0 mm 3 mps 763 mmHg 80%
    20:00 +12°C° 0 mm 2 mps 763 mmHg 81%
    21:00 +10°C° 0 mm 2 mps 763 mmHg 82%
    22:00 +10°C° 0 mm 2 mps 763 mmHg 82%
    23:00 +10°C° 0 mm 2 mps 763 mmHg 80%

    Tomorrow, 19 February, Tuesday

    Time Temperature Precipitation Wind Pressure Humidity
    00:00 +9°C° 0 mm 2 mps 763 mmHg 77%
    01:00 +9°C° 0 mm 2 mps 763 mmHg 74%
    02:00 +9°C° 0 mm 2 mps 763 mmHg 71%
    03:00 +9°C° 0 mm 2 mps 763 mmHg 68%
    04:00 +8°C° 0 mm 2 mps 763 mmHg 64%
    05:00 +8°C° 0 mm 2 mps 763 mmHg 63%
    06:00 +8°C° 0 mm 2 mps 763 mmHg 62%
    07:00 +8°C° 0 mm 2 mps 763 mmHg 61%
    08:00 +11°C° 0 mm 1 mps 763 mmHg 57%
    09:00 +13°C° 0 mm 1 mps 763 mmHg 54%
    10:00 +15°C° 0 mm 1 mps 763 mmHg 51%
    11:00 +16°C° 0 mm 1 mps 763 mmHg 48%
    12:00 +19°C° 0 mm 1 mps 763 mmHg 45%
    13:00 +20°C° 0 mm 1 mps 763 mmHg 42%
    14:00 +19°C° 0 mm 2 mps 762 mmHg 45%
    15:00 +18°C° 0 mm 2 mps 762 mmHg 49%
    16:00 +18°C° 0 mm 3 mps 762 mmHg 52%
    17:00 +16°C° 0 mm 3 mps 762 mmHg 60%
    18:00 +14°C° 0 mm 2 mps 762 mmHg 67%
    19:00 +12°C° 0 mm 2 mps 762 mmHg 74%
    20:00 +12°C° 0 mm 2 mps 762 mmHg 76%
    21:00 +11°C° 0 mm 1 mps 763 mmHg 78%
    22:00 +11°C° 0 mm 1 mps 763 mmHg 80%
    23:00 +11°C° 0 mm 1 mps 763 mmHg 79%

    Day after tomorrow, 20 February, Wednesday

    Time Temperature Precipitation Wind Pressure Humidity
    00:00 +10°C° 0 mm 1 mps 763 mmHg 79%
    01:00 +10°C° 0 mm 1 mps 763 mmHg 78%
    02:00 +10°C° 0 mm 1 mps 763 mmHg 78%
    03:00 +10°C° 0 mm 1 mps 763 mmHg 78%
    04:00 +9°C° 0 mm 1 mps 763 mmHg 78%
    05:00 +9°C° 0 mm 1 mps 763 mmHg 77%
    06:00 +9°C° 0 mm 1 mps 763 mmHg 77%
    07:00 +9°C° 0 mm 1 mps 763 mmHg 76%
    08:00 +11°C° 0 mm 1 mps 764 mmHg 71%
    09:00 +13°C° 0 mm 1 mps 764 mmHg 66%
    10:00 +14°C° 0 mm 0 mps 764 mmHg 61%
    11:00 +16°C° 0 mm 1 mps 764 mmHg 58%
    12:00 +18°C° 0 mm 1 mps 764 mmHg 56%
    13:00 +18°C° 0 mm 2 mps 764 mmHg 53%
    14:00 +18°C° 0 mm 2 mps 764 mmHg 56%
    15:00 +18°C° 0 mm 3 mps 764 mmHg 59%
    16:00 +18°C° 0 mm 4 mps 763 mmHg 61%
    17:00 +16°C° 0 mm 3 mps 764 mmHg 69%
    18:00 +13°C° 0 mm 3 mps 764 mmHg 76%
    19:00 +12°C° 0 mm 2 mps 765 mmHg 84%
    20:00 +12°C° 0 mm 2 mps 765 mmHg 85%
    21:00 +12°C° 0 mm 1 mps 766 mmHg 86%
    22:00 +11°C° 0 mm 1 mps 766 mmHg 88%
    23:00 +11°C° 0 mm 1 mps 766 mmHg 88%

    21 February, Thursday

    Time Temperature Precipitation Wind Pressure Humidity
    00:00 +11°C° 0 mm 1 mps 767 mmHg 89%
    01:00 +10°C° 0 mm 2 mps 767 mmHg 89%
    02:00 +10°C° 0 mm 1 mps 767 mmHg 89%
    03:00 +10°C° 0 mm 1 mps 767 mmHg 89%
    04:00 +10°C° 0 mm 1 mps 767 mmHg 89%
    05:00 +10°C° 0 mm 1 mps 767 mmHg 89%
    06:00 +10°C° 0 mm 1 mps 767 mmHg 89%
    07:00 +9°C° 0 mm 1 mps 768 mmHg 89%
    08:00 +11°C° 0 mm 1 mps 768 mmHg 84%
    09:00 +13°C° 0 mm 1 mps 768 mmHg 78%
    10:00 +14°C° 0 mm 0 mps 769 mmHg 72%
    11:00 +16°C° 0 mm 1 mps 769 mmHg 68%
    12:00 +17°C° 0 mm 2 mps 769 mmHg 65%
    13:00 +18°C° 0 mm 3 mps 768 mmHg 61%
    14:00 +17°C° 0 mm 3 mps 768 mmHg 63%
    15:00 +17°C° 0 mm 3 mps 768 mmHg 65%
    16:00 +17°C° 0 mm 4 mps 768 mmHg 67%
    17:00 +14°C° 0 mm 3 mps 768 mmHg 73%
    18:00 +13°C° 0 mm 3 mps 769 mmHg 80%
    19:00 +11°C° 0 mm 3 mps 769 mmHg 86%
    20:00 +12°C° 0 mm 2 mps 770 mmHg 87%
    21:00 +10°C° 0 mm 2 mps 770 mmHg 88%
    22:00 +11°C° 0 mm 1 mps 771 mmHg 89%
    23:00 +10°C° 0 mm 1 mps 771 mmHg 90%

    22 February, Friday

    Time Temperature Precipitation Wind Pressure Humidity
    00:00 +10°C° 0 mm 1 mps 771 mmHg 91%
    01:00 +10°C° 0 mm 1 mps 771 mmHg 92%
    02:00 +10°C° 0 mm 1 mps 771 mmHg 92%
    03:00 +9°C° 0 mm 1 mps 770 mmHg 92%
    04:00 +9°C° 0 mm 1 mps 770 mmHg 93%
    05:00 +8°C° 0 mm 2 mps 770 mmHg 92%
    06:00 +8°C° 0 mm 2 mps 770 mmHg 92%
    07:00 +8°C° 0 mm 2 mps 770 mmHg 92%
    08:00 +9°C° 0 mm 2 mps 770 mmHg 85%
    09:00 +12°C° 0 mm 2 mps 771 mmHg 79%
    10:00 +14°C° 0 mm 2 mps 771 mmHg 72%
    11:00 +15°C° 0 mm 2 mps 770 mmHg 68%
    12:00 +16°C° 0 mm 2 mps 770 mmHg 63%
    13:00 +17°C° 0 mm 2 mps 770 mmHg 59%
    14:00 +16°C° 0 mm 2 mps 769 mmHg 62%
    15:00 +16°C° 0 mm 2 mps 769 mmHg 64%
    16:00 +16°C° 0 mm 3 mps 769 mmHg 67%
    17:00 +15°C° 0 mm 2 mps 769 mmHg 72%
    18:00 +13°C° 0 mm 2 mps 769 mmHg 78%
    19:00 +11°C° 0 mm 1 mps 769 mmHg 83%
    20:00 +11°C° 0 mm 1 mps 770 mmHg 84%
    21:00 +11°C° 0 mm 1 mps 770 mmHg 85%
    22:00 +10°C° 0 mm 1 mps 771 mmHg 85%
    23:00 +10°C° 0 mm 1 mps 771 mmHg 87%

    23 February, Saturday

    Time Temperature Precipitation Wind Pressure Humidity
    00:00 +10°C° 0 mm 1 mps 771 mmHg 88%
    01:00 +8°C° 0 mm 2 mps 771 mmHg 90%
    02:00 +8°C° 0 mm 2 mps 771 mmHg 90%
    03:00 +9°C° 0 mm 1 mps 771 mmHg 90%
    04:00 +8°C° 0 mm 1 mps 771 mmHg 90%
    05:00 +7°C° 0 mm 2 mps 771 mmHg 89%
    06:00 +7°C° 0 mm 2 mps 771 mmHg 88%
    07:00 +7°C° 0 mm 2 mps 771 mmHg 86%
    08:00 +9°C° 0 mm 2 mps 772 mmHg 79%
    09:00 +12°C° 0 mm 1 mps 772 mmHg 71%
    10:00 +13°C° 0 mm 0 mps 772 mmHg 64%
    11:00 +15°C° 0 mm 1 mps 772 mmHg 61%
    12:00 +16°C° 0 mm 2 mps 772 mmHg 58%
    13:00 +17°C° 0 mm 3 mps 772 mmHg 55%
    14:00 +17°C° 0 mm 3 mps 772 mmHg 57%
    15:00 +16°C° 0 mm 3 mps 771 mmHg 59%
    16:00 +16°C° 0 mm 3 mps 771 mmHg 62%
    17:00 +14°C° 0 mm 3 mps 771 mmHg 70%
    18:00 +12°C° 0 mm 3 mps 771 mmHg 78%
    19:00 +10°C° 0 mm 2 mps 772 mmHg 85%
    20:00 +10°C° 0 mm 2 mps 772 mmHg 87%
    21:00 +10°C° 0 mm 2 mps 772 mmHg 88%
    22:00 +10°C° 0 mm 1 mps 772 mmHg 89%
    23:00 +10°C° 0 mm 1 mps 772 mmHg 89%
    Show more